KC2RCU Weather Reports


Display with metric or nautical units.
time (UTC)temp
F
wind
direction
speed
MPH
gust
MPH
rain 1hr
in
rain 24hr
in
rain mn
in
humidity
%
barometer
mb
20210617195748 83 225 4.0 11.0 0.00 0.00 0.00 1014.6
20210617194514 83 212 3.0 9.0 0.00 0.00 0.00 38 1014.9
20210617194013 83 243 4.0 8.0 0.00 0.00 0.00 1015.2
20210617193011 82 217 4.0 8.0 0.00 0.00 0.00 1015.2
20210617192009 82 218 2.0 9.0 0.00 0.00 0.00 1015.2
20210617191507 82 217 4.0 11.0 0.00 0.00 0.00 1014.9
20210617191005 82 234 3.0 11.0 0.00 0.00 0.00 39 1015.2
20210617190003 82 262 1.0 10.0 0.00 0.00 0.00 1015.2
20210617184500 82 230 5.0 12.0 0.00 0.00 0.00 40 1015.6
20210617182956 81 245 6.0 11.0 0.00 0.00 0.00 1015.6
20210617181953 81 215 6.0 11.0 0.00 0.00 0.00 41 1015.6
20210617181451 81 180 3.0 8.0 0.00 0.00 0.00 39 1015.6
20210617180950 81 201 1.0 8.0 0.00 0.00 0.00 1015.6
20210617180450 80 226 2.0 9.0 0.00 0.00 0.00 1015.9
20210617173944 79 219 4.0 10.0 0.00 0.00 0.00 1015.9
20210617173443 79 212 4.0 10.0 0.00 0.00 0.00 1015.9
20210617172440 79 173 0.0 8.0 0.00 0.00 0.00 1015.9
20210617171939 79 167 2.0 10.0 0.00 0.00 0.00 1016.3
20210617171438 79 248 4.0 10.0 0.00 0.00 0.00 1016.3
20210617170937 79 206 3.0 10.0 0.00 0.00 0.00 41 1016.3
20210617165935 78 86 1.0 10.0 0.00 0.00 0.00 1016.3
20210617164431 78 199 1.0 11.0 0.00 0.00 0.00 44 1016.6
20210617163930 77 160 3.0 13.0 0.00 0.00 0.00 1016.6
20210617162928 77 223 4.0 13.0 0.00 0.00 0.00 43 1016.6
20210617160923 76 166 4.0 12.0 0.00 0.00 0.00 44 1016.9
20210617155920 76 176 5.0 12.0 0.00 0.00 0.00 1016.9
20210617154918 76 205 7.0 14.0 0.00 0.00 0.00 1016.9
20210617154417 76 190 4.0 14.0 0.00 0.00 0.00 1016.9
20210617153414 75 199 5.0 13.0 0.00 0.00 0.00 1016.9
20210617152913 75 163 1.0 13.0 0.00 0.00 0.00 1017.3
20210617144904 73 216 6.0 9.0 0.00 0.00 0.00 1017.6
20210617142357 72 219 3.0 9.0 0.00 0.00 0.00 1017.6
20210617141856 72 213 1.0 9.0 0.00 0.00 0.00 1017.6
20210617140853 71 213 1.0 7.0 0.00 0.00 0.00 1017.6
20210617140352 71 210 1.0 9.0 0.00 0.00 0.00 1017.6
20210617135852 70 209 2.0 9.0 0.00 0.00 0.00 1017.6
20210617135351 70 216 1.0 9.0 0.00 0.00 0.00 1017.9
20210617134849 69 190 2.0 8.0 0.00 0.00 0.00 1017.6
20210617134348 69 215 0.0 8.0 0.00 0.00 0.00 59 1017.6
20210617133848 69 196 0.0 8.0 0.00 0.00 0.00 60 1017.9
20210617132344 68 200 0.0 0.0 0.00 0.00 0.00 1017.6
20210617130838 67 189 0.0 0.0 0.00 0.00 0.00 1017.6
20210617130337 67 186 0.0 0.0 0.00 0.00 0.00 1017.6
20210617125335 65 128 0.0 0.0 0.00 0.00 0.00 1017.6
20210617124332 64 128 0.0 0.0 0.00 0.00 0.00 1017.6
20210617122328 61 128 0.0 0.0 0.00 0.00 0.00 83 1017.3
20210617121827 61 128 0.0 0.0 0.00 0.00 0.00 82 1017.3
20210617121326 61 9 0.0 0.0 0.00 0.00 0.00 85 1017.3
20210617120825 60 9 0.0 0.0 0.00 0.00 0.00 86 1017.3
20210617114318 56 9 0.0 0.0 0.00 0.00 0.00 1017.3
20210617113817 55 9 0.0 0.0 0.00 0.00 0.00 1017.3
20210617112314 54 9 0.0 0.0 0.00 0.00 0.00 1017.3
20210617111813 54 9 0.0 0.0 0.00 0.00 0.00 1017.3
20210617110310 52 9 0.0 0.0 0.00 0.00 0.00 1017.3
20210617105308 51 9 0.0 0.0 0.00 0.00 0.00 96 1016.9
20210617102803 51 12 0.0 0.0 0.00 0.00 0.00 1016.9
20210617101800 51 12 0.0 0.0 0.00 0.00 0.00 1016.9
20210617101259 51 12 0.0 0.0 0.00 0.00 0.00 1016.9
20210617095756 52 12 0.0 0.0 0.00 0.00 0.00 1016.9
20210617094753 52 12 0.0 0.0 0.00 0.00 0.00 1016.9
20210617093751 52 12 0.0 0.0 0.00 0.00 0.00 1016.9
20210617093250 52 12 0.0 0.0 0.00 0.00 0.00 1016.9
20210617092248 52 12 0.0 0.0 0.00 0.00 0.00 1016.9
20210617090744 52 12 0.0 0.0 0.00 0.00 0.00 1016.9
20210617085241 52 12 0.0 0.0 0.00 0.00 0.00 1016.9
20210617084237 52 12 0.0 0.0 0.00 0.00 0.00 1016.9
20210617083735 52 12 0.0 0.0 0.00 0.00 0.00 1016.9
20210617083234 52 12 0.0 0.0 0.00 0.00 0.00 1016.9
20210617082733 52 12 0.0 0.0 0.00 0.00 0.00 1016.9
20210617082231 52 12 0.0 0.0 0.00 0.00 0.00 1016.9
20210617081229 52 12 0.0 0.0 0.00 0.00 0.00 94 1016.9
20210617080727 53 12 0.0 0.0 0.00 0.00 0.00 94 1016.6
20210617080225 53 12 0.0 0.0 0.00 0.00 0.00 1016.6
20210617075222 53 12 0.0 0.0 0.00 0.00 0.00 1016.6
20210617074721 53 12 0.0 0.0 0.00 0.00 0.00 1016.9
20210617073719 54 12 0.0 0.0 0.00 0.00 0.00 92 1016.9
20210617071714 54 12 0.0 0.0 0.00 0.00 0.00 1016.9
20210617070211 54 12 0.0 0.0 0.00 0.00 0.00 1016.9
20210617065208 55 12 0.0 0.0 0.00 0.00 0.00 89 1016.9
20210617064707 55 12 0.0 0.0 0.00 0.00 0.00 1016.9
20210617064206 55 12 0.0 0.0 0.00 0.00 0.00 1016.9
20210617063704 55 12 0.0 0.0 0.00 0.00 0.00 1016.9
20210617062701 55 12 0.0 0.0 0.00 0.00 0.00 1016.9
20210617062200 55 12 0.0 0.0 0.00 0.00 0.00 1016.9
20210617060655 55 12 0.0 0.0 0.00 0.00 0.00 1016.9
20210617060154 55 12 0.0 0.0 0.00 0.00 0.00 1016.9
20210617055653 55 12 0.0 0.0 0.00 0.00 0.00 86 1016.9
20210617055152 55 12 0.0 0.0 0.00 0.00 0.00 85 1016.9
20210617054650 56 12 0.0 0.0 0.00 0.00 0.00 1016.9
20210617053646 56 12 0.0 0.0 0.00 0.00 0.00 1016.9
20210617052143 57 12 0.0 0.0 0.00 0.00 0.00 83 1016.9
20210617051641 57 12 0.0 0.0 0.00 0.00 0.00 82 1016.9
20210617051140 57 12 0.0 0.0 0.00 0.00 0.00 1016.9
20210617045636 57 12 0.0 0.0 0.00 0.00 0.00 1017.3
20210617043630 58 307 0.0 0.0 0.00 0.00 0.00 1017.3
20210617043129 58 307 0.0 0.0 0.00 0.00 0.00 1017.3
20210617042628 58 307 0.0 0.0 0.00 0.00 0.00 1017.3
20210617042126 59 307 0.0 0.0 0.00 0.00 0.00 79 1017.3
20210617041625 59 307 0.0 0.0 0.00 0.00 0.00 79 1016.9
20210617041123 58 307 0.0 0.0 0.00 0.00 0.00 1017.3
20210617040622 58 307 0.0 0.0 0.00 0.00 0.00 1017.3
20210617040121 58 307 0.0 0.0 0.00 0.00 0.00 1017.3
20210617035620 58 307 0.0 0.0 0.00 0.00 0.00 1017.3
20210617035119 58 307 0.0 0.0 0.00 0.00 0.00 1017.3
20210617034617 58 307 0.0 0.0 0.00 0.00 0.00 77 1017.3
20210617033112 59 307 0.0 0.0 0.00 0.00 0.00 1017.3
20210617031609 60 307 0.0 0.0 0.00 0.00 0.00 1017.3
20210617031107 60 307 0.0 0.0 0.00 0.00 0.00 1017.3
20210617030103 60 307 0.0 0.0 0.00 0.00 0.00 1017.3
20210617025100 61 307 0.0 0.0 0.00 0.00 0.00 1017.3
20210617024558 61 307 0.0 0.0 0.00 0.00 0.00 1017.3
20210617024057 61 307 0.0 0.0 0.00 0.00 0.00 1017.3
20210617023053 62 307 0.0 0.0 0.00 0.00 0.00 71 1017.3
20210617022552 62 307 0.0 0.0 0.00 0.00 0.00 72 1017.3
20210617022050 62 307 0.0 0.0 0.00 0.00 0.00 70 1017.3
20210617021547 62 307 0.0 0.0 0.00 0.00 0.00 1017.3
20210617021046 63 307 0.0 0.0 0.00 0.00 0.00 1016.9
20210617020044 64 307 0.0 0.0 0.00 0.00 0.00 1016.9
20210617015542 64 307 0.0 0.0 0.00 0.00 0.00 1016.9
20210617014540 65 307 0.0 0.0 0.00 0.00 0.00 1016.9
20210617013036 67 307 0.0 0.0 0.00 0.00 0.00 1016.9
20210617011533 69 307 0.0 0.0 0.00 0.00 0.00 53 1016.9
20210617005523 71 307 0.0 0.0 0.00 0.00 0.00 51 1016.9
20210617005021 72 307 0.0 0.0 0.00 0.00 0.00 50 1016.9
20210617004517 72 307 0.0 0.0 0.00 0.00 0.00 49 1016.6
20210617002510 74 307 0.0 3.0 0.00 0.00 0.00 1016.9
20210617002009 74 307 0.0 3.0 0.00 0.00 0.00 1016.9
20210617001006 74 307 0.0 4.0 0.00 0.00 0.00 1016.9
20210617000504 75 290 0.0 6.0 0.00 0.00 0.00 1016.9
20210616235502 75 290 0.0 6.0 0.00 0.00 0.00 1016.6
20210616234459 75 285 1.0 5.0 0.00 0.00 0.00 1016.6
20210616233457 75 316 0.0 5.0 0.00 0.00 0.00 1016.9
20210616225946 75 301 0.0 5.0 0.00 0.00 0.00 1016.9
20210616225445 75 320 1.0 5.0 0.00 0.00 0.00 1016.9
20210616223440 75 272 2.0 7.0 0.00 0.00 0.00 1017.3
20210616222437 75 288 2.0 6.0 0.00 0.00 0.00 38 1017.3
20210616221936 75 308 0.0 7.0 0.00 0.00 0.00 1017.3
20210616215430 75 309 0.0 7.0 0.00 0.00 0.00 1017.6
20210616214929 75 284 1.0 7.0 0.00 0.00 0.00 1017.6
20210616214428 76 278 1.0 7.0 0.00 0.00 0.00 1017.6
20210616213426 76 263 2.0 6.0 0.00 0.00 0.00 1017.6
20210616212422 76 220 0.0 6.0 0.00 0.00 0.00 39 1017.6
20210616211921 76 237 1.0 10.0 0.00 0.00 0.00 1017.6
20210616210918 75 306 0.0 12.0 0.00 0.00 0.00 1017.6
20210616210416 75 302 1.0 12.0 0.00 0.00 0.00 1017.6
20210616205414 75 300 8.0 11.0 0.00 0.00 0.00 36 1017.6
20210616204412 75 290 0.0 2.0 0.00 0.00 0.00 1017.9
20210616203410 75 330 0.0 10.0 0.00 0.00 0.00 1017.9